• In Deutschland
  • Länderverzeichnis
  • Für 7 Tage
  • Wassertemperatur
  • Satellitenkarten
  • Wetterkarte
  • Widgets
  • user-avatar
    Anmelden

    Stündliche Wetter Friedrichshafen

    Heute, 11 Dezember, Montag

    Zeit Temperatur Niederschläge Wind Luftdruck Luftfeuchtigkeit
    00:00 +2°C° 0,6 mm 3 m/S 708 mmHg 87%
    01:00 +2°C° 0 mm 3 m/S 708 mmHg 86%
    02:00 +2°C° 0,3 mm 3 m/S 707 mmHg 86%
    03:00 +2°C° 0,3 mm 3 m/S 707 mmHg 86%
    04:00 +4°C° 0,3 mm 2 m/S 706 mmHg 86%
    05:00 +4°C° 0,1 mm 2 m/S 706 mmHg 85%
    06:00 +4°C° 0,1 mm 2 m/S 705 mmHg 85%
    07:00 +4°C° 0 mm 3 m/S 705 mmHg 83%
    08:00 +4°C° 0,1 mm 3 m/S 704 mmHg 85%
    09:00 +5°C° 0,1 mm 2 m/S 704 mmHg 87%
    10:00 +5°C° 0,1 mm 2 m/S 703 mmHg 89%
    11:00 +6°C° 0,1 mm 2 m/S 703 mmHg 89%
    12:00 +7°C° 0,1 mm 1 m/S 703 mmHg 90%
    13:00 +7°C° 0,1 mm 1 m/S 703 mmHg 90%
    14:00 +7°C° 0 mm 1 m/S 703 mmHg 90%
    15:00 +6°C° 0 mm 2 m/S 703 mmHg 90%
    16:00 +5°C° 0 mm 2 m/S 704 mmHg 89%
    17:00 +5°C° 0,3 mm 2 m/S 704 mmHg 91%
    18:00 +5°C° 0,3 mm 2 m/S 705 mmHg 92%
    19:00 +5°C° 0,3 mm 2 m/S 706 mmHg 94%
    20:00 +4°C° 1,2 mm 3 m/S 706 mmHg 93%
    21:00 +4°C° 1,2 mm 3 m/S 707 mmHg 93%
    22:00 +4°C° 1,2 mm 4 m/S 707 mmHg 93%
    23:00 +3°C° 0,9 mm 4 m/S 708 mmHg 92%

    Morgen, 12 Dezember, Dienstag

    Zeit Temperatur Niederschläge Wind Luftdruck Luftfeuchtigkeit
    00:00 +3°C° 0,9 mm 4 m/S 708 mmHg 91%
    01:00 +3°C° 0,9 mm 4 m/S 709 mmHg 90%
    02:00 +3°C° 0,6 mm 4 m/S 710 mmHg 90%
    03:00 +3°C° 0,6 mm 4 m/S 711 mmHg 90%
    04:00 +2°C° 0,6 mm 5 m/S 712 mmHg 90%
    05:00 +1°C° 0,6 mm 5 m/S 713 mmHg 90%
    06:00 0°C° 0,6 mm 5 m/S 715 mmHg 89%
    07:00 0°C° 0,6 mm 5 m/S 716 mmHg 89%
    08:00 0°C° 0,4 mm 5 m/S 717 mmHg 89%
    09:00 0°C° 0,4 mm 4 m/S 718 mmHg 89%
    10:00 0°C° 0,4 mm 4 m/S 720 mmHg 89%
    11:00 0°C° 0,4 mm 4 m/S 720 mmHg 89%
    12:00 0°C° 0,4 mm 4 m/S 721 mmHg 89%
    13:00 0°C° 0,4 mm 4 m/S 722 mmHg 88%
    14:00 +1°C° 0,4 mm 3 m/S 722 mmHg 89%
    15:00 +1°C° 0,4 mm 3 m/S 723 mmHg 90%
    16:00 0°C° 0,4 mm 3 m/S 724 mmHg 91%
    17:00 0°C° 0,2 mm 3 m/S 725 mmHg 92%
    18:00 -1°C° 0,2 mm 3 m/S 726 mmHg 92%
    19:00 -1°C° 0,2 mm 3 m/S 726 mmHg 93%
    20:00 -1°C° 0,1 mm 2 m/S 727 mmHg 93%
    21:00 -2°C° 0,1 mm 2 m/S 728 mmHg 94%
    22:00 -2°C° 0,1 mm 2 m/S 729 mmHg 94%
    23:00 -3°C° 0 mm 2 m/S 729 mmHg 93%

    übermorgen, 13 Dezember, Mittwoch

    Zeit Temperatur Niederschläge Wind Luftdruck Luftfeuchtigkeit
    00:00 -3°C° 0 mm 2 m/S 729 mmHg 93%
    01:00 -4°C° 0 mm 2 m/S 730 mmHg 93%
    02:00 -4°C° 0 mm 2 m/S 730 mmHg 91%
    03:00 -4°C° 0 mm 2 m/S 729 mmHg 89%
    04:00 -5°C° 0 mm 2 m/S 729 mmHg 88%
    05:00 -5°C° 0 mm 2 m/S 729 mmHg 85%
    06:00 -6°C° 0 mm 3 m/S 729 mmHg 83%
    07:00 -6°C° 0 mm 3 m/S 729 mmHg 80%
    08:00 -5°C° 0 mm 3 m/S 729 mmHg 77%
    09:00 -4°C° 0 mm 3 m/S 728 mmHg 73%
    10:00 -2°C° 0 mm 3 m/S 728 mmHg 70%
    11:00 -1°C° 0 mm 3 m/S 727 mmHg 68%
    12:00 +1°C° 0 mm 3 m/S 726 mmHg 66%
    13:00 +2°C° 0 mm 3 m/S 725 mmHg 65%
    14:00 +2°C° 0,1 mm 3 m/S 724 mmHg 67%
    15:00 +2°C° 0,1 mm 3 m/S 724 mmHg 70%
    16:00 +1°C° 0,1 mm 3 m/S 724 mmHg 73%
    17:00 +2°C° 0,2 mm 3 m/S 723 mmHg 75%
    18:00 +2°C° 0,2 mm 3 m/S 723 mmHg 77%
    19:00 +1°C° 0,2 mm 4 m/S 723 mmHg 78%
    20:00 +1°C° 0,2 mm 4 m/S 723 mmHg 79%
    21:00 +1°C° 0,2 mm 4 m/S 722 mmHg 79%
    22:00 0°C° 0,2 mm 4 m/S 722 mmHg 79%
    23:00 +1°C° 0,5 mm 4 m/S 721 mmHg 80%

    14 Dezember, Donnerstag

    Zeit Temperatur Niederschläge Wind Luftdruck Luftfeuchtigkeit
    00:00 +1°C° 0,5 mm 4 m/S 721 mmHg 81%
    01:00 +1°C° 0,5 mm 4 m/S 720 mmHg 82%
    02:00 +1°C° 0,5 mm 4 m/S 720 mmHg 83%
    03:00 +2°C° 0,5 mm 5 m/S 719 mmHg 84%
    04:00 +2°C° 0,5 mm 5 m/S 719 mmHg 85%
    05:00 +2°C° 0,2 mm 5 m/S 719 mmHg 86%
    06:00 +3°C° 0,2 mm 5 m/S 719 mmHg 87%
    07:00 +3°C° 0,2 mm 5 m/S 719 mmHg 88%
    08:00 +3°C° 0,2 mm 5 m/S 718 mmHg 89%
    09:00 +3°C° 0,2 mm 5 m/S 718 mmHg 90%
    10:00 +5°C° 0,2 mm 5 m/S 718 mmHg 91%
    11:00 +5°C° 0,1 mm 5 m/S 717 mmHg 90%
    12:00 +4°C° 0,1 mm 6 m/S 717 mmHg 88%
    13:00 +5°C° 0,1 mm 6 m/S 716 mmHg 87%
    14:00 +5°C° 0 mm 6 m/S 715 mmHg 86%
    15:00 +4°C° 0 mm 6 m/S 715 mmHg 85%
    16:00 +4°C° 0 mm 7 m/S 714 mmHg 84%
    17:00 +4°C° 1 mm 6 m/S 714 mmHg 85%
    18:00 +4°C° 1 mm 6 m/S 714 mmHg 86%
    19:00 +3°C° 1 mm 6 m/S 714 mmHg 87%
    20:00 +3°C° 2,6 mm 5 m/S 715 mmHg 88%
    21:00 +2°C° 2,6 mm 5 m/S 715 mmHg 90%
    22:00 +3°C° 2,6 mm 4 m/S 715 mmHg 91%
    23:00 +3°C° 1,6 mm 4 m/S 715 mmHg 92%

    15 Dezember, Freitag

    Zeit Temperatur Niederschläge Wind Luftdruck Luftfeuchtigkeit
    00:00 +1°C° 1,6 mm 4 m/S 715 mmHg 92%
    01:00 +1°C° 1,6 mm 4 m/S 715 mmHg 93%
    02:00 +2°C° 1,3 mm 3 m/S 715 mmHg 93%
    03:00 +2°C° 1,3 mm 3 m/S 715 mmHg 93%
    04:00 +2°C° 1,3 mm 3 m/S 715 mmHg 93%
    05:00 +1°C° 0,6 mm 3 m/S 716 mmHg 93%
    06:00 0°C° 0,6 mm 4 m/S 716 mmHg 93%
    07:00 0°C° 0,6 mm 4 m/S 716 mmHg 92%
    08:00 0°C° 0,1 mm 4 m/S 716 mmHg 91%
    09:00 0°C° 0,1 mm 4 m/S 716 mmHg 90%
    10:00 0°C° 0,1 mm 4 m/S 716 mmHg 89%
    11:00 0°C° 0 mm 4 m/S 716 mmHg 87%
    12:00 +1°C° 0 mm 5 m/S 716 mmHg 85%
    13:00 +1°C° 0 mm 5 m/S 716 mmHg 83%
    14:00 0°C° 0 mm 5 m/S 716 mmHg 84%
    15:00 0°C° 0 mm 4 m/S 716 mmHg 85%
    16:00 0°C° 0 mm 3 m/S 716 mmHg 85%
    17:00 -1°C° 0,2 mm 4 m/S 716 mmHg 87%
    18:00 -1°C° 0,2 mm 4 m/S 717 mmHg 88%
    19:00 -1°C° 0,2 mm 4 m/S 717 mmHg 89%
    20:00 -1°C° 0,6 mm 5 m/S 718 mmHg 89%
    21:00 -1°C° 0,6 mm 5 m/S 719 mmHg 90%
    22:00 -1°C° 0,6 mm 5 m/S 720 mmHg 90%
    23:00 -1°C° 0,3 mm 5 m/S 720 mmHg 91%

    16 Dezember, Samstag

    Zeit Temperatur Niederschläge Wind Luftdruck Luftfeuchtigkeit
    00:00 -2°C° 0,3 mm 5 m/S 721 mmHg 91%
    01:00 -2°C° 0,3 mm 4 m/S 721 mmHg 92%
    02:00 -2°C° 0,4 mm 4 m/S 722 mmHg 92%
    03:00 -2°C° 0,4 mm 4 m/S 722 mmHg 92%
    04:00 -2°C° 0,4 mm 5 m/S 723 mmHg 92%
    05:00 -2°C° 0,3 mm 4 m/S 723 mmHg 92%
    06:00 -2°C° 0,3 mm 4 m/S 724 mmHg 92%
    07:00 -2°C° 0,3 mm 4 m/S 724 mmHg 92%
    08:00 -2°C° 0,2 mm 4 m/S 725 mmHg 91%
    09:00 -2°C° 0,2 mm 4 m/S 725 mmHg 90%
    10:00 -1°C° 0,2 mm 5 m/S 726 mmHg 89%
    11:00 -1°C° 0,1 mm 5 m/S 726 mmHg 88%
    12:00 -1°C° 0,1 mm 4 m/S 726 mmHg 87%
    13:00 0°C° 0,1 mm 4 m/S 726 mmHg 87%
    14:00 -1°C° 0,2 mm 4 m/S 726 mmHg 88%
    15:00 -1°C° 0,2 mm 4 m/S 726 mmHg 89%
    16:00 -1°C° 0,2 mm 4 m/S 726 mmHg 91%
    17:00 -1°C° 0,2 mm 3 m/S 727 mmHg 91%
    18:00 -1°C° 0,2 mm 3 m/S 727 mmHg 92%
    19:00 -1°C° 0,2 mm 3 m/S 728 mmHg 92%
    20:00 -2°C° 0,2 mm 3 m/S 728 mmHg 91%
    21:00 -2°C° 0,2 mm 3 m/S 728 mmHg 91%
    22:00 -2°C° 0,2 mm 3 m/S 729 mmHg 90%
    23:00 -4°C° 0,1 mm 3 m/S 729 mmHg 89%
    Mehr zeigen